User: anonymous   Login
Location: Goheenville
(40.9070°N, 79.3720°W)
Time: 18:19:17
(UTC-05:00)
Language:

Cosmos 1727 Rocket - Orbit

View from above orbital plane
View from above orbital plane
View from above satellite
View from above satellite

Ground track
Ground track

The orbit data is extracted from the following two-line orbital elements,

1 16511U 86008B   17351.43459984  .00000032  00000-0  16868-4 0  9997
2 16511  82.9460  84.0316 0025333 129.2452 278.1172 13.75817198601474
Epoch (UTC): 17 December 2017 10:25:49
Eccentricity: 0.0025333
inclination: 82.9460°
perigee height: 960 km
apogee height: 997 km
right ascension of ascending node: 84.0316°
argument of perigee: 129.2452°
revolutions per day: 13.75817198
mean anomaly at epoch: 278.1172°
orbit number at epoch: 60147

The dashed part of the orbit path shows where the satellite is in the earth's shadow,  

DLR